Waseca, MN

10:49 PM CDT on March 22, 2017 (GMT -0500)
Waseca Municipal

Weather History for KACQ - March, 2014

Change the Weather History Date:

Saturday, March 1, 2014

  Actual Average Record
Temperature  
Mean Temperature 3 °F -  
Max Temperature 10 °F 32 °F 64 °F (1923)
Min Temperature -5 °F 14 °F -27 °F (1962)
Degree Days  
Heating Degree Days 62    
Moisture  
Dew Point -8 °F    
Average Humidity 66    
Maximum Humidity 79    
Minimum Humidity 55    
Precipitation  
Precipitation 0.00 in - - ()
Sea Level Pressure  
Sea Level Pressure 30.38 in    
Wind  
Wind Speed 14 mph (NW)    
Max Wind Speed 20 mph    
Max Gust Speed 21 mph    
Visibility 9 miles    
Events Snow    
Averages and records for this station are not official NWS values.
T = Trace of Precipitation, MM = Missing Value Source: NWS Daily Summary

Daily Weather History Graph

Daily Weather History Graph

Search for Another Location

Airport or City:

Trip Planner

Search our weather history database for the weather conditions in past years. The results will help you decide how hot, cold, wet, or windy it might be!

Date:

Astronomy

Mar. 01, 2014 Rise Set
Actual Time 6:51 AM CST 6:02 PM CST
Civil Twilight 6:22 AM CST 6:31 PM CST
Nautical Twilight 5:48 AM CST 7:05 PM CST
Astronomical Twilight 5:15 AM CST 7:38 PM CST
Moon 6:43 AM CST (3/1) 6:53 PM CST (3/1)
Length of Visible Light 12h 09m
Length of Day
11h 11m
New Moon, 0% of the Moon is Illuminated
Mar 1
New Moon
Mar 8
First Quarter
Mar 16
Full
Mar 23
Last Quarter
Mar 30
New

Hourly Weather History & Observations

Time (CST) Temp. Windchill Dew Point Humidity Pressure Visibility Wind Dir Wind Speed Gust Speed Precip Events Conditions
12:16 AM 10.4 °F -6.0 °F 3.2 °F 73% 30.16 in 10.0 mi NW 15.0 mph 20.7 mph N/A   Mostly Cloudy
12:36 AM 8.6 °F -8.3 °F 3.2 °F 79% 30.16 in 10.0 mi NW 15.0 mph - N/A   Overcast
12:56 AM 8.6 °F -8.3 °F 1.4 °F 73% 30.17 in 10.0 mi NW 15.0 mph - N/A   Overcast
1:16 AM 6.8 °F -9.3 °F 1.4 °F 79% 30.17 in 10.0 mi NW 12.7 mph - N/A   Overcast
1:36 AM 6.8 °F -11.3 °F -0.4 °F 72% 30.18 in 10.0 mi NW 16.1 mph - N/A   Scattered Clouds
1:56 AM 5.0 °F -14.2 °F -0.4 °F 78% 30.20 in 10.0 mi NW 17.3 mph 20.7 mph N/A   Clear
2:16 AM 3.2 °F -14.6 °F -4.0 °F 72% 30.21 in 10.0 mi NW 13.8 mph - N/A   Clear
2:36 AM 3.2 °F -13.1 °F -2.2 °F 78% 30.22 in 10.0 mi NW 11.5 mph - N/A   Clear
2:56 AM 3.2 °F -13.9 °F -2.2 °F 78% 30.24 in 10.0 mi NW 12.7 mph - N/A   Mostly Cloudy
3:16 AM 3.2 °F -15.9 °F -2.2 °F 78% 30.24 in 10.0 mi NW 16.1 mph 20.7 mph N/A   Overcast
3:37 AM 3.2 °F -16.5 °F -4.0 °F 72% 30.23 in 10.0 mi NW 17.3 mph - N/A   Overcast
3:57 AM 1.4 °F -16.9 °F -5.8 °F 72% 30.25 in 10.0 mi NW 13.8 mph - N/A   Mostly Cloudy
4:16 AM 1.4 °F -15.3 °F -5.8 °F 72% 30.26 in 10.0 mi NW 11.5 mph - N/A   Scattered Clouds
4:36 AM 1.4 °F -18.2 °F -5.8 °F 72% 30.26 in 10.0 mi NW 16.1 mph - N/A   Clear
4:56 AM 1.4 °F -17.6 °F -5.8 °F 72% 30.27 in 10.0 mi NW 15.0 mph 19.6 mph N/A   Clear
5:16 AM 1.4 °F -15.3 °F -5.8 °F 72% 30.30 in 10.0 mi NW 11.5 mph - N/A   Clear
5:37 AM -0.4 °F -19.9 °F -7.6 °F 72% 30.29 in 10.0 mi NNW 15.0 mph - N/A   Clear
5:56 AM -0.4 °F -18.4 °F -5.8 °F 78% 30.31 in 10.0 mi NW 12.7 mph - N/A   Clear
6:16 AM 1.4 °F -16.1 °F -5.8 °F 72% 30.32 in 10.0 mi NW 12.7 mph - N/A   Clear
6:37 AM 1.4 °F -17.6 °F -5.8 °F 72% 30.32 in 10.0 mi NNW 15.0 mph - N/A   Mostly Cloudy
6:56 AM 1.4 °F -16.9 °F -5.8 °F 72% 30.32 in 10.0 mi NNW 13.8 mph - N/A   Mostly Cloudy
7:16 AM 1.4 °F -18.8 °F -5.8 °F 72% 30.33 in 10.0 mi NNW 17.3 mph - N/A   Mostly Cloudy
7:36 AM 1.4 °F -18.2 °F -5.8 °F 72% 30.35 in 10.0 mi NNW 16.1 mph - N/A   Overcast
7:56 AM 1.4 °F -16.1 °F -5.8 °F 72% 30.35 in 10.0 mi NNW 12.7 mph - N/A   Overcast
8:16 AM 1.4 °F -16.9 °F -7.6 °F 66% 30.39 in 10.0 mi NW 13.8 mph 17.3 mph N/A   Overcast
8:37 AM 1.4 °F -16.9 °F -7.6 °F 66% 30.40 in 10.0 mi NW 13.8 mph - N/A   Overcast
8:56 AM 1.4 °F -15.3 °F -7.6 °F 66% 30.39 in 10.0 mi NW 11.5 mph - N/A   Overcast
9:17 AM 1.4 °F -18.8 °F -7.6 °F 66% 30.38 in 10.0 mi NNW 17.3 mph - N/A   Overcast
9:36 AM 1.4 °F -19.9 °F -7.6 °F 66% 30.38 in 7.0 mi NNW 19.6 mph - N/A Snow Light Snow
9:57 AM 1.4 °F -18.2 °F -7.6 °F 66% 30.40 in 4.0 mi NNW 16.1 mph - N/A Snow Light Snow
10:17 AM 1.4 °F -16.1 °F -7.6 °F 66% 30.42 in 3.0 mi NW 12.7 mph - N/A Snow Light Snow
10:36 AM 1.4 °F -18.2 °F -5.8 °F 72% 30.41 in 2.0 mi NW 16.1 mph - N/A Snow Light Snow
10:56 AM -0.4 °F -19.9 °F -7.6 °F 72% 30.43 in 1.5 mi NW 15.0 mph - N/A Snow Light Snow
11:17 AM 1.4 °F -16.9 °F -7.6 °F 66% 30.43 in 1.5 mi NW 13.8 mph - N/A Snow Light Snow
11:37 AM 1.4 °F -18.2 °F -7.6 °F 66% 30.43 in 3.0 mi NW 16.1 mph - N/A   Haze
11:56 AM 1.4 °F -17.6 °F -7.6 °F 66% 30.45 in 5.0 mi NW 15.0 mph - N/A   Haze
12:16 PM 1.4 °F -18.8 °F -7.6 °F 66% 30.45 in 3.0 mi WNW 17.3 mph - N/A   Haze
12:36 PM 1.4 °F -16.9 °F -7.6 °F 66% 30.44 in 5.0 mi NW 13.8 mph - N/A   Haze
12:56 PM 1.4 °F -18.8 °F -7.6 °F 66% 30.44 in 4.0 mi WNW 17.3 mph - N/A   Haze
1:17 PM 3.2 °F -15.9 °F -5.8 °F 66% 30.43 in 7.0 mi NW 16.1 mph - N/A   Mostly Cloudy
1:36 PM 1.4 °F -17.6 °F -7.6 °F 66% 30.43 in 10.0 mi NW 15.0 mph - N/A   Scattered Clouds
1:57 PM 1.4 °F -16.1 °F -9.4 °F 61% 30.42 in 10.0 mi NW 12.7 mph - N/A   Mostly Cloudy
2:16 PM 1.4 °F -16.9 °F -9.4 °F 61% 30.41 in 10.0 mi NW 13.8 mph - N/A   Mostly Cloudy
2:37 PM 1.4 °F -16.9 °F -9.4 °F 61% 30.42 in 10.0 mi NW 13.8 mph - N/A   Mostly Cloudy
2:56 PM 1.4 °F -16.9 °F -9.4 °F 61% 30.44 in 5.0 mi NW 13.8 mph - N/A Snow Light Snow
3:17 PM 1.4 °F -17.6 °F -9.4 °F 61% 30.44 in 7.0 mi NW 15.0 mph 20.7 mph N/A Snow Light Snow
3:36 PM 1.4 °F -16.9 °F -9.4 °F 61% 30.44 in 10.0 mi NW 13.8 mph - N/A   Overcast
3:57 PM 1.4 °F -16.9 °F -9.4 °F 61% 30.42 in 10.0 mi NNW 13.8 mph - N/A   Overcast
4:16 PM 1.4 °F -17.6 °F -9.4 °F 61% 30.42 in 10.0 mi NNW 15.0 mph - N/A   Scattered Clouds
4:36 PM 1.4 °F -17.6 °F -9.4 °F 61% 30.43 in 10.0 mi NNW 15.0 mph - N/A   Mostly Cloudy
4:57 PM 1.4 °F -16.1 °F -9.4 °F 61% 30.44 in 10.0 mi NW 12.7 mph - N/A   Overcast
5:16 PM -0.4 °F -19.2 °F -11.2 °F 60% 30.45 in 10.0 mi NW 13.8 mph - N/A   Overcast
5:36 PM -0.4 °F -19.9 °F -11.2 °F 60% 30.45 in 10.0 mi NNW 15.0 mph - N/A   Overcast
5:57 PM -0.4 °F -19.9 °F -13.0 °F 55% 30.46 in 10.0 mi NW 15.0 mph - N/A   Overcast
6:16 PM -0.4 °F -19.9 °F -13.0 °F 55% 30.47 in 10.0 mi NW 15.0 mph - N/A   Overcast
6:36 PM -0.4 °F -19.2 °F -13.0 °F 55% 30.48 in 10.0 mi NW 13.8 mph - N/A   Overcast
6:57 PM -0.4 °F -17.6 °F -13.0 °F 55% 30.49 in 10.0 mi WNW 11.5 mph 18.4 mph N/A   Overcast
7:16 PM -0.4 °F -19.9 °F -13.0 °F 55% 30.48 in 10.0 mi NW 15.0 mph - N/A   Overcast
7:37 PM -0.4 °F -19.9 °F -11.2 °F 60% 30.47 in 10.0 mi NW 15.0 mph - N/A   Overcast
7:56 PM -0.4 °F -20.5 °F -13.0 °F 55% 30.47 in 10.0 mi NW 16.1 mph - N/A   Mostly Cloudy
8:16 PM -0.4 °F -19.9 °F -11.2 °F 60% 30.47 in 10.0 mi NW 15.0 mph 19.6 mph N/A   Scattered Clouds
8:37 PM -4.0 °F -21.2 °F -14.8 °F 60% 30.47 in 10.0 mi NW 10.4 mph - N/A   Clear
8:56 PM -4.0 °F -23.7 °F -14.8 °F 60% 30.48 in 10.0 mi NW 13.8 mph - N/A   Clear
9:17 PM -4.0 °F -23.0 °F -14.8 °F 60% 30.47 in 10.0 mi NW 12.7 mph - N/A   Clear
9:36 PM -4.0 °F -20.2 °F -14.8 °F 60% 30.49 in 10.0 mi NW 9.2 mph - N/A   Clear
9:56 PM -4.0 °F -22.1 °F -14.8 °F 60% 30.50 in 10.0 mi NW 11.5 mph - N/A   Clear
10:16 PM -4.0 °F -21.2 °F -14.8 °F 60% 30.50 in 10.0 mi NW 10.4 mph - N/A   Clear
10:36 PM -4.0 °F -22.1 °F -14.8 °F 60% 30.50 in 10.0 mi NW 11.5 mph - N/A   Clear
10:56 PM -4.0 °F -23.0 °F -13.0 °F 65% 30.49 in 10.0 mi NW 12.7 mph - N/A   Clear
11:16 PM -4.0 °F -23.7 °F -14.8 °F 60% 30.50 in 10.0 mi NW 13.8 mph - N/A   Clear
11:36 PM -4.0 °F -22.1 °F -13.0 °F 65% 30.52 in 10.0 mi WNW 11.5 mph - N/A   Clear
11:56 PM -5.8 °F -25.2 °F -14.8 °F 65% 30.52 in 10.0 mi WNW 12.7 mph - N/A   Clear